Regional Weather Roundup
Issued by NWS

Home | Current Version | Previous Version | Graphics & Text | Print | Product List | Glossary On
Versions: 1 2 3 4 5 6 7 8 9 10 11 12 13 14 15 16 17 18 19 20 21 22 23 24 25 26 27 28 29 30 31 32 33 34 35 36 37 38 39 40 41 42 43 44 45 46 47 48 49 50
000
ASUS43 KLMK 240210
RWRKY
KENTUCKY REGIONAL WEATHER ROUNDUP
NATIONAL WEATHER SERVICE LOUISVILLE KY
900 PM EST THU FEB 23 2017

NOTE "FAIR" INDICATES FEW OR NO CLOUDS BELOW 12,000 FEET
WITH NO SIGNIFICANT WEATHER AND/OR OBSTRUCTIONS TO VISIBILITY.

KYZ001>023-026-027-061>063-070>075-240300-
WESTERN AND SOUTH CENTRAL KENTUCKY

CITY           SKY/WX    TMP DP  RH WIND       PRES   REMARKS
PADUCAH        PTCLDY    65  54  67 SE10      29.63F
HENDERSON      PTCLDY    63  52  67 SE6       29.67F
OWENSBORO      MOCLDY    64  56  75 SE8       29.70S
HOPKINSVILLE   CLEAR     67  55  64 S8        29.71S
BOWLING GREEN  CLEAR     65  53  65 SE3       29.75R
GLASGOW        PTCLDY    65  52  64 S5        29.76S
$$

KYZ024-025-028>034-038-045-046-053-240300-
NORTH CENTRAL KENTUCKY

CITY           SKY/WX    TMP DP  RH WIND       PRES   REMARKS
LOUISVILLE/SDF MOCLDY    64  54  69 SE6       29.74S
LOUISVILLE/LOU CLOUDY    67  56  67 SE6       29.74S
FORT KNOX      CLEAR     62  55  77 SE7       29.73R
$$

KYZ035>037-039>044-047>052-055>060-089>105-240300-
NORTHEAST KENTUCKY

CITY           SKY/WX    TMP DP  RH WIND       PRES   REMARKS
LEXINGTON      PTCLDY    63  54  72 SE8       29.78F
COVINGTON      CLOUDY    64  57  78 S10       29.76F
FRANKFORT      MOCLDY    63  54  72 SE6       29.75F
$$

KYZ054-064>069-076>088-106>120-240300-
SOUTHEAST KENTUCKY

CITY           SKY/WX    TMP DP  RH WIND       PRES   REMARKS
JACKSON        CLOUDY    63  53  70 E5        29.82F
LONDON         PTCLDY    60  51  72 SE3       29.82R
SOMERSET       CLEAR     63  50  63 S3        29.81S
MIDDLESBORO    PTCLDY    54  51  90 CALM      29.84S
MONTICELLO     CLEAR     54  50  86 W10       29.82R
$$




USA.gov is the U.S. government's official web portal to all federal, state and local government web resources and services.